Location: Ku?niki
(51.4449°N, 17.8974°E)
Time: 03:29:38
(UTC+00:00)

ARIANE 5 R/B - Pass Details

Date: 18 September 2020
Orbit: 620 x 657 km, 98.2° (Epoch: 09 October)

Event Time Altitude Azimuth Distance (km) Brightness Sun altitude
Exits shadow 18:00:10 12° 80° (E) 1,863 4.5 -10.8°
Maximum altitude 18:01:50 15° 55° (NE) 1,715 4.5 -11.1°
Drops below altitude 10° 18:04:12 10° 22° (NNE) 2,003 5.1 -11.4°
Sets 18:07:15 0° 359° (N) 2,913 6.3 -11.9°
